Change the Weather History Date:

Saturday, June 29, 2013

  Actual Average Record
Temperature  
Mean Temperature 78 °F -  
Max Temperature 102 °F 90 °F 102 °F (2013)
Min Temperature 57 °F 51 °F 45 °F (2001)
Cooling Degree Days 14    
Growing Degree Days 28 (Base 50)    
Moisture  
Dew Point 34 °F    
Average Humidity 22    
Maximum Humidity 55    
Minimum Humidity 4    
Precipitation  
Precipitation 0.00 in - - ()
Sea Level Pressure  
Sea Level Pressure 29.88 in    
Wind  
Wind Speed 7 mph (SSW)    
Max Wind Speed 24 mph    
Max Gust Speed 33 mph    
Visibility 10 miles    
Events      
Averages and records for this station are not official NWS values.
T = Trace of Precipitation, MM = Missing Value Source: NWS Daily Summary

Daily Weather History Graph

Daily Weather History Graph

Search for Another Location

Airport or City:

Trip Planner

Search our weather history database for the weather conditions in past years. The results will help you decide how hot, cold, wet, or windy it might be!

Date:

Astronomy

Jun. 29, 2013 Rise Set
Actual Time 6:11 AM MDT 8:59 PM MDT
Civil Twilight 5:39 AM MDT 9:31 PM MDT
Nautical Twilight 4:59 AM MDT 10:11 PM MDT
Astronomical Twilight 4:14 AM MDT 10:56 PM MDT
Moon 12:36 AM MDT (6/29) 1:20 PM MDT (6/29)
Length of Visible Light 15h 52m
Length of Day
14h 48m
Waning Gibbous, 55% of the Moon is Illuminated
Jun 29
Waning Gibbous
Jun 29
Last Quarter
Jul 8
New
Jul 15
First Quarter
Jul 22
Full

Hourly Weather History & Observations

Time (MDT) Temp. Dew Point Humidity Pressure Visibility Wind Dir Wind Speed Gust Speed Precip Events Conditions
12:52 AM 72.0 °F 41.0 °F 33% 29.91 in 10.0 mi NW 11.5 mph - N/A   Clear
1:52 AM 68.0 °F 41.0 °F 37% 29.92 in 10.0 mi SW 5.8 mph - N/A   Clear
2:52 AM 63.0 °F 42.1 °F 46% 29.91 in 10.0 mi SSE 6.9 mph - N/A   Clear
3:52 AM 62.1 °F 42.1 °F 48% 29.91 in 10.0 mi SSW 3.5 mph - N/A   Clear
4:52 AM 63.0 °F 42.1 °F 46% 29.92 in 10.0 mi SSE 3.5 mph - N/A   Clear
5:52 AM 57.0 °F 41.0 °F 55% 29.97 in 10.0 mi North 6.9 mph - N/A   Clear
6:52 AM 62.1 °F 42.1 °F 48% 29.99 in 10.0 mi Calm Calm - N/A   Clear
7:52 AM 64.9 °F 42.1 °F 43% 29.98 in 10.0 mi South 5.8 mph - N/A   Clear
8:52 AM 73.9 °F 39.9 °F 29% 29.95 in 10.0 mi SSW 8.1 mph - N/A   Clear
9:52 AM 80.1 °F 41.0 °F 25% 29.94 in 10.0 mi South 8.1 mph - N/A   Clear
10:52 AM 87.1 °F 37.0 °F 17% 29.93 in 10.0 mi South 3.5 mph - N/A   Clear
11:52 AM 91.9 °F 35.1 °F 13% 29.91 in 10.0 mi Calm Calm - N/A   Clear
12:52 PM 96.1 °F 32.0 °F 10% 29.89 in 10.0 mi Variable 4.6 mph - N/A   Clear
1:52 PM 100.0 °F 27.0 °F 8% 29.86 in 10.0 mi Variable 6.9 mph - N/A   Clear
2:52 PM 102.0 °F 26.1 °F 7% 29.84 in 10.0 mi North 10.4 mph 17.3 mph N/A   Clear
3:52 PM 98.1 °F 28.0 °F 8% 29.84 in 10.0 mi Calm Calm - N/A   Clear
4:52 PM 95.0 °F 25.0 °F 8% 29.84 in 10.0 mi West 24.2 mph 33.4 mph N/A   Clear
5:52 PM 100.9 °F 23.0 °F 6% 29.81 in 10.0 mi NNW 5.8 mph - N/A   Clear
6:52 PM 100.0 °F 18.0 °F 5% 29.78 in 10.0 mi West 9.2 mph - N/A   Clear
7:52 PM 97.0 °F 27.0 °F 8% 29.79 in 10.0 mi South 8.1 mph - N/A   Clear
8:52 PM 89.1 °F 37.0 °F 16% 29.78 in 10.0 mi South 9.2 mph - N/A   Clear
9:52 PM 82.9 °F 34.0 °F 17% 29.79 in 10.0 mi SW 8.1 mph - N/A   Clear
10:52 PM 87.1 °F 30.0 °F 13% 29.78 in 10.0 mi SSW 16.1 mph - N/A   Clear
11:52 PM 79.0 °F 33.1 °F 19% 29.80 in 10.0 mi South 5.8 mph - N/A   Clear